Regional Weather Roundup
Issued by NWS Upton, NY

Current Version | Previous Version | Text Only | Print | Product List | Glossary On
Versions: 1 2 3 4 5 6 7 8 9 10 11 12 13 14 15 16 17 18 19 20 21 22 23 24 25 26 27 28
000
ASUS41 KOKX 201908
RWROKX

REGIONAL WEATHER ROUNDUP
NATIONAL WEATHER SERVICE NEW YORK NY
300 PM EDT FRI OCT 20 2017

NOTE: "FAIR" INDICATES FEW OR NO CLOUDS BELOW 12,000 FEET WITH NO
SIGNIFICANT WEATHER AND/OR OBSTRUCTIONS TO VISIBILITY.

NYZ071-072-176-178-NJZ106-104-202000-
NEW YORK CITY METRO AREA

CITY           SKY/WX    TMP DP  RH WIND       PRES   REMARKS
Central Park   SUNNY     73  28  18 VRB5      30.12F
Bronx Bot Gard   N/A     72  30  21 W7        30.12R
LaGuardia APRT SUNNY     73  34  23 NW13      30.09F
Kennedy INTL   MOSUNNY   75  29  18 NW15      30.11S
Breezy Point     N/A     72 N/A N/A W8          N/A
Newark/Liberty MOSUNNY   75  26  16 NW15G24   30.10F
Teterboro      SUNNY     75  29  18 N12       30.09F
$$

NYZ177-179-078>081-202000-
LONG ISLAND NEW YORK

CITY           SKY/WX    TMP DP  RH WIND       PRES   REMARKS
Jones Beach      N/A     70 N/A N/A NW12        N/A
Matinecock PT    N/A     70 N/A N/A W10         N/A
Farmingdale    SUNNY     72  32  23 W10       30.10S
MacArthur/ISP  SUNNY     72  33  24 W14       30.08S
Shirley        SUNNY     73  37  27 W14G21    30.08F
Mt Sinai Harb    N/A    N/A N/A N/A W7          N/A
Westhampton    SUNNY     70  32  24 NW15      30.07F
East Hampton   FAIR      67  44  43 W12G18    30.05S
Montauk          N/A     68  46  45 W10G21    30.05F
$$

NYZ052-065-067-202000-
HUDSON VALLEY

CITY           SKY/WX    TMP DP  RH WIND       PRES   REMARKS
White Plains   SUNNY     71  34  25 W14       30.10S
Larchmont Harb   N/A     68 N/A N/A W10         N/A
Croton On Huds   N/A     72 N/A N/A W9          N/A
Newburgh       SUNNY     73  37  27 NW6       30.11S
Montgomery     SUNNY     74  36  25 NW12      30.09S
Poughkeepsie   SUNNY     73  35  25 N10       30.08F
Albany         MOSUNNY   69  38  32 NW9G22    30.11F
$$

NJZ001-105-106-008-010-013-015-019>022-104-202000-
NEW JERSEY

CITY           SKY/WX    TMP DP  RH WIND       PRES   REMARKS
Newark/Liberty MOSUNNY   75  26  16 NW15G24   30.10F
Teterboro      SUNNY     75  29  18 N12       30.09F
Caldwell       SUNNY     74  32  21 NW15      30.11F
Somerville     SUNNY     75  32  20 VRB7      30.11F
Linden         NOT AVBL
Perth Amboy      N/A     70 N/A N/A W15G22      N/A
Sussex         SUNNY     71  34  25 NW9       30.13F
Andover          N/A     72  31  22 VRB3      30.13F
Trenton        SUNNY     73  33  23 NW8       30.14F
Millville      SUNNY     76  42  29 NW12      30.16F
Atlantic City  SUNNY     74  35  24 NW14G21   30.15F
Wrightstown    SUNNY     72  37  27 NW10      30.11F
Toms River       N/A     73  37  27 W21       30.13F
Belmar         SUNNY     72  34  24 NW13      30.13F
$$

PAZ047>061-062-071-202000-
EASTERN PENNSYLVANIA

CITY           SKY/WX    TMP DP  RH WIND       PRES   REMARKS
Philadelphia   MOSUNNY   73  37  27 NW10      30.16F
Allentown      SUNNY     74  26  16 NW15      30.15F
Scranton       SUNNY     70  30  22 NW13G22   30.20F
$$

CTZ002-004>006-009-010-012-RIZ004-006-007-MAZ004-011-015-202000-
SOUTHERN NEW ENGLAND
 IN CT

CITY           SKY/WX    TMP DP  RH WIND       PRES   REMARKS
Bradley INTL   MOSUNNY   72  36  26 NW10      30.06R
Hartford       SUNNY     72  37  28 W10       30.05S
Danbury        SUNNY     71  33  24 W9G17     30.10S
Wtrbury/Oxford SUNNY     69  34  27 NW15G23   30.09S
Norwalk Harbor   N/A     68 N/A N/A W15         N/A
Bridgeport     SUNNY     73  32  22 W13       30.06F
Meriden        SUNNY     72  37  28 NW14      30.06S
New Haven      SUNNY     72  36  26 NW9       30.06F
Chester        FAIR      73  36  25 NW12G18   30.05S
Groton         SUNNY     71  37  28 NW15      30.03S
Wilimantic     SUNNY     70  36  28 NW9G23    30.04S

 IN RI

CITY           SKY/WX    TMP DP  RH WIND       PRES   REMARKS
Providence     MOSUNNY   71  39  31 NW12      30.02F
Block Island   SUNNY     69  43  38 W9G16     30.04
Westerly       SUNNY     73  36  25 NW8       30.03F
 IN MA

CITY           SKY/WX    TMP DP  RH WIND       PRES   REMARKS
Boston         MOSUNNY   70  37  29 W13G21    29.99F
Worcester      SUNNY     66  31  27 NW14G24   30.04S
Westfield      SUNNY     71  34  25 NW14      30.06R
Provincetown   SUNNY     65  46  50 NW10      29.99F
Nantucket      SUNNY     67  46  47 NW13      30.00S
$$

ANZ330-335-338-340-345-350-353-355-202000-
COASTAL MARINE OBSERVATIONS


STATION/POSITION TIME  SKY/WX   TEMP    WIND        PRES    VSBY  WAVE
                                AIR SEA DIR/SP/G                  HT/PER
                 (UTC)          (F)     (DEG/KT/KT) (MB)    (MI)  (FT/S)
NY HARB ENTRANCE 1750            66 65  280/ 10/ 12 1019.2          2/ 9
20 S FIRE ISLAND 1750            64 64  290/ 12/ 14 1019.5          3/ 9
GREAT SOUTH BAY  1815            67 62  300/ 12/ 14   N/A
15 E BARNEGAT LI NOT AVBL
HUDSON CANYON    1750            64 65  320/ 14/ 16 1019.0          4/ 5
KINGS POINT      1836            69 65  340/  6/  8 1019.9
EXECUTION ROCKS  1830            71     310/  8/ 16   N/A
WESTERN LI SOUND 1749            69     300/ 12/ 16   N/A           1
CENTRAL LI SOUND NOT AVBL
EASTERN LI SOUND NOT AVBL
ROBBINS REEF     1836            71     300/ 12/ 19 1019.9
$$


>>>>>>>>>>>>>>>>>>>>>>>>>>>> KEY <<<<<<<<<<<<<<<<<<<<<<<<<<<
>                                                          <
>     SKY/WX - Sky Condition/Present Weather               <
>     TMP    - Temperature in Fahrenheit                   <
>     DP     - Dew Point in Fahrenheit                     <
>     RH     - Relative Humidity in Percent                <
>     WIND   - Direction (from) and Speed in MPH           <
>     PRES   - Mean Sea Level Pressure (inches of Hg)      <
>     WCI    - Wind Chill Index                            <
>     VSB    - VISIBILITY IN MILES                         <
>     HX     - HEAT INDEX                                  <
>     TC     - TEMPERATURE IN CELSIUS                      <
>     VRB    - VARIABLE WIND DIRECTION                     <
>                                                          <
>>>>>>>>>>>>>>>>>>>>>>>>>>>> KEY <<<<<<<<<<<<<<<<<<<<<<<<<<<




USA.gov is the U.S. government's official web portal to all federal, state and local government web resources and services.